Location: Azul
(36.7830°S, 59.8500°W)
Time: 15:34:00
(UTC-03:00)

ISS - Visible Passes

Search period start: 23 July 2024 00:00
Search period end: 02 August 2024 00:00
Orbit: 409 x 423 km, 51.6° (Epoch: 23 July)

Date Brightness Start Highest point End Pass type
(mag) Time Alt. Az. Time Alt. Az. Time Alt. Az.
29 Jul -1.1 07:05:00 10° S 07:06:16 12° SSE 07:07:31 10° SE visible
31 Jul -1.6 07:03:08 10° SSW 07:05:47 20° SSE 07:08:26 10° ESE visible
01 Aug -1.2 06:15:47 13° S 06:16:42 14° SSE 06:18:42 10° ESE visible
